COSMOS 2538

导读

COSMOS 2538(宇宙2538)是独联体(CIS)于2019年7月10日发射的军用卫星,隶属俄罗斯“宇宙”系列卫星。它采用球体构型,直径约0.8米,质量约16千克,国际卫星标识符为2019-039C,NORAD编号44423,运行在近地轨道,主要承担军事技术试验、空间态势感知等任务,是独联体航天体系中小型空间试验平台的典型代表。

基本信息
目录编号:
44424
目录名称:
COSMOS 2538
国际标识:
2019-039D
轨道中心:
EARTH
卫星名称:
COSMOS 2538
卫星全名:
--
卫星状态:
在轨 (已飞行2620 天)
发射日期:
2019-07-10 UTC
国别 :
俄罗斯(独联体) (CIS)
星等 :
--
该卫星已列入 空间交会检测服务 Space Conjunction Data Service (SCDS) ,当前飞行风险评估等级: 无高风险
轨道信息
数据来源 国际轨道数据
星历时间: 2026-09-11T22:39:09+0800
6小时前
查看轨道信息
半长轴: 6879.356km
偏心率: 0.0042747
轨道倾角: 97.583°
近地点辐角 102.999°
升交点赤经 334.628°
平近点角 257.603°
近地点: 471.811km
远地点: 530.627km
周期: 94.641分钟
每日圈数: 15.215323
详细信息
使用方式:
暂无
2D轨道图
3D轨道图
轨道高度分析图
轨道倾角分析图
轨道综合分析图
查看轨道综合分析图
交会数据列表
事件ID 空间交会对象 最接近时刻(TCA) 交会距离 交会风险概率(CRP) 交会风险指数(CRI) 操作
CDM_260912-225104-442405-558425
2026-09-12T
22:51:09+0000
1.911 km
极远距离
2.334805E-6 低风险 0.42
CDM_260914-000404-442406-703722
2026-09-14T
00:04:28+0000
2.528 km
极远距离
1.408527E-6 低风险 0.38
与全量物体交会距离演化趋势
与全量物体交会风险概率演化趋势